#timestamp,LO_Frequency,Hit,StdDev 
1660114815.1,286047001.1,N
1660114816.0,286047001.1,N
1660114835.8,286046999.0,N
1660114855.7,286046999.3,N
1660114875.5,286046999.6,N
1660114895.3,286046999.0,N
1660114915.2,286046998.8,N
1660114935.9,286046998.9,N
1660114955.7,286046998.4,N
1660114975.6,286046999.0,N
1660114995.4,286046998.7,N
1660115015.3,286046998.1,N
1660115035.1,286046998.1,N
1660115036.0,286046998.1,N
1660115055.8,286046998.7,N
1660115075.7,286046998.6,N
1660115095.5,286046999.3,N
1660115115.3,286046999.4,N
1660115135.2,286046999.6,N
1660115155.0,286046998.2,N
1660115155.9,286046998.2,N
1660115175.8,286046998.2,N
1660115195.6,286046999.5,N
1660115215.4,286046996.5,Y
1660115235.3,286046998.1,P
1660115255.1,286047000.5,N
1660115275.8,286047001.1,N
1660115295.7,286047000.7,N
1660115315.5,286046999.3,N
1660115335.4,286046997.0,N
1660115355.2,286046996.7,N
1660115375.1,286046999.4,N
1660115376.0,286046999.4,N
1660115395.8,286046998.8,N
1660115415.6,286046998.8,N
1660115435.5,286046998.9,N
1660115455.3,286046996.9,N
1660115475.1,286046996.9,N
1660115495.9,286046999.1,N
1660115515.7,286046996.9,N
1660115535.6,286046999.5,N
1660115555.4,286046999.4,N
1660115575.2,286047000.7,N
1660115595.1,286047000.7,N
1660115596.0,286047000.7,N
1660115615.8,286047000.9,N
1660115635.7,286047001.2,N
1660115655.5,286047000.1,N
1660115675.3,286047001.9,N
1660115695.2,286047002.6,N
1660115715.0,286047003.8,N
1660115715.9,286047003.8,N
1660115735.7,286047003.9,N
1660115755.6,286047004.1,N
1660115775.4,286047003.4,N
1660115795.3,286047003.5,N
1660115815.1,286047003.8,N
1660115816.0,286047003.8,N
1660115835.8,286047003.1,N
1660115855.7,286047005.3,N
1660115875.5,286047007.1,N
1660115895.4,286047004.7,N
1660115915.2,286047004.8,N
1660115935.0,286047006.8,N
1660115935.9,286047006.8,N
1660115955.8,286047006.1,N
1660115975.6,286047006.7,N
1660115995.5,286047007.0,N
1660116015.3,286047006.9,N
1660116035.1,286047006.5,N
1660116055.9,286047006.8,N
1660116075.7,286047007.3,Y
1660116095.5,286047002.5,P
1660116115.4,286047002.5,P
1660116135.2,286047002.5,P
1660116155.1,286047001.9,Y
1660116156.0,286047001.9,P
1660116175.8,286046998.3,P
1660116195.6,286047000.8,N
1660116215.5,286047000.4,N
1660116235.3,286046998.3,N
1660116255.2,286046999.3,N
1660116275.9,286047000.8,N
1660116295.7,286046999.7,N
1660116315.6,286046999.8,N
1660116335.4,286046998.7,N
1660116355.3,286046999.3,N
1660116375.1,286046999.0,N
1660116376.0,286046999.0,N
1660116395.8,286046996.9,N
1660116415.7,286046996.9,N
1660116435.5,286046998.9,N
1660116455.3,286046998.9,N
1660116475.2,286046998.4,N
1660116495.0,286046999.4,N
1660116495.9,286046999.4,N
1660116515.8,286046999.5,N
1660116535.6,286046997.1,N
1660116555.4,286046997.3,N
1660116575.3,286046998.0,N
1660116595.1,286046997.7,N
1660116615.8,286046997.7,N
1660116635.7,286046997.8,N
1660116655.5,286046996.9,N
1660116675.4,286046997.0,N
1660116695.2,286046997.1,N
1660116715.0,286046996.5,N
1660116715.9,286046996.5,N
1660116735.8,286046999.6,N
1660116755.6,286046997.6,N
1660116775.4,286046997.2,N
1660116795.3,286046997.2,N
1660116815.1,286046997.5,N
1660116835.9,286046997.6,N
1660116855.7,286046995.3,Y
1660116875.5,286046998.3,P
1660116895.4,286046998.3,P
1660116915.2,286046999.4,P
1660116935.0,286046997.1,Y
1660116936.0,286046997.1,P
1660116955.8,286046998.1,N
1660116975.6,286047000.1,N
1660116995.5,286046998.5,N
1660117015.3,286046998.9,N
1660117035.1,286046998.9,N
1660117055.9,286046999.1,N
1660117075.7,286046996.6,Y
1660117095.6,286046999.1,P
1660117115.4,286046999.2,P
1660117135.3,286046999.1,P
1660117155.1,286046998.9,Y
1660117175.8,286047000.3,P
1660117195.7,286047002.8,P
1660117215.5,286047001.7,N
1660117235.4,286047000.2,N
1660117255.2,286047000.2,N
1660117275.0,286047004.4,Y
1660117275.9,286047004.4,P
1660117295.8,286047002.4,N
1660117315.6,286046998.6,N
1660117335.5,286046998.5,N
1660117355.3,286047000.2,N
1660117375.1,286047000.2,N
1660117395.9,286046999.9,N
1660117415.7,286047000.5,N
1660117435.6,286047000.5,N
1660117455.4,286046998.5,N
1660117475.2,286046998.9,N
1660117495.1,286046998.7,N
1660117496.0,286046998.7,N
1660117515.8,286046996.5,N
1660117535.7,286046999.4,N
1660117555.5,286046998.2,N
1660117575.4,286046998.2,N
1660117595.2,286047001.2,N
1660117615.0,286047000.6,N
1660117615.9,286047000.6,N
1660117635.8,286046998.2,N
1660117655.6,286047000.7,N
1660117675.4,286047001.1,N
1660117695.3,286046999.1,N
1660117715.1,286046996.9,N
1660117735.9,286046996.8,N
1660117755.7,286046996.8,N
1660117775.5,286046997.2,N
1660117795.4,286046997.0,N
1660117815.2,286046998.5,N
1660117835.0,286046999.1,N
1660117835.9,286046999.1,N
1660117855.8,286046999.0,N
1660117875.0,286046998.6,N
1660117875.9,286046998.6,N
1660117895.8,286046998.3,N
1660117915.6,286046998.8,N
1660117935.4,286046998.1,N
1660117955.3,286046998.1,N
1660117975.1,286046998.7,N
1660117995.8,286046998.3,N
1660118015.7,286046999.0,N
1660118035.5,286046998.7,N
1660118055.4,286047001.2,N
1660118075.2,286046998.3,N
1660118095.0,286046998.7,N
1660118095.9,286046998.7,N
1660118115.8,286046999.4,N
1660118135.6,286046999.4,N
1660118155.5,286046999.4,N
1660118175.3,286046996.9,N
1660118195.1,286046996.5,Y
1660118215.9,286046998.6,P
1660118235.7,286046998.1,P
1660118255.5,286046999.0,P
1660118275.4,286046998.7,Y
1660118295.2,286047000.6,P
1660118315.1,286046998.4,N
1660118316.0,286046998.4,N
1660118335.8,286047000.0,N
1660118355.6,286047000.7,N
1660118375.5,286047002.8,N
1660118395.3,286047002.4,N
